Regional Weather Roundup
Issued by NWS Newport/Morehead, NC

Current Version | Previous Version | Text Only | Print | Product List | Glossary On
Versions: 1 2 3 4 5 6 7 8 9 10 11 12 13 14 15 16 17 18 19 20 21 22 23 24 25 26 27 28 29 30 31 32 33 34 35 36 37 38 39 40 41 42 43 44 45 46 47 48 49 50
000
ASUS42 KMHX 271810
RWRMHX
WEATHER ROUNDUP FOR EASTERN NORTH CAROLINA
NATIONAL WEATHER SERVICE NEWPORT/MOREHEAD CITY NC
200 PM EDT WED AUG 27 2014

NOTE: "FAIR" INDICATES FEW OR NO CLOUDS BELOW 12,000 FEET
WITH NO SIGNIFICANT WEATHER AND/OR OBSTRUCTIONS TO VISIBILITY

NCZ015>017-031-032-045>047-102-103-271900-
NORTH COAST

CITY           SKY/WX    TMP DP  RH WIND       PRES   REMARKS
EDENTON        MOSUNNY   83  69  61 NE6       29.98F
ELIZABETH CITY MOSUNNY   82  70  66 NE13      29.98F
KITTY HAWK     CLOUDY    79  72  78 N10G21    29.97F
MANTEO         PTSUNNY   79  72  78 N18G25    29.97F

$$

NCZ045>047-081-094-103-104-271900-
CENTRAL COAST

CITY           SKY/WX    TMP DP  RH WIND       PRES   REMARKS
FRISCO         MOSUNNY   81  74  79 N14G24    29.94F
SWANQUARTER      N/A     84 N/A N/A NE9G21    29.91F

$$

NCZ095-097-098-100-101-271900-
SOUTHERN COAST

CITY           SKY/WX    TMP DP  RH WIND       PRES   REMARKS
BEAUFORT       MOSUNNY   85  72  65 N20       29.94F
CEDAR ISLAND     N/A     81 N/A N/A N10G21    30.00S
JACKSONVILLE   MOSUNNY   85  68  56 N16       29.96F
NEWPORT        NOT AVBL
PINEY ISLAND   PTCLDY    85  73  67 N15       29.95F
WILMINGTON     SUNNY     86  68  54 N7G18     29.97F


$$

NCZ011>013-027>030-043-044-078>080-089-090>093-098-271900-
COASTAL PLAIN

CITY           SKY/WX    TMP DP  RH WIND       PRES   REMARKS
AHOSKIE        SUNNY     81  65  58 N8        30.01F
CLINTON        SUNNY     83  66  55 N8        30.01F
ELIZABETHTOWN  SUNNY     84  62  46 NE3       30.00F
GOLDSBORO      SUNNY     82  69  65 VRB3      29.99F
GREENVILLE     MOSUNNY   82  68  61 N7G17     30.02F
HAVELOCK       MOSUNNY   85  70  60 N13       29.96F
KENANSVILLE    SUNNY     83  64  53 N6        30.01F
KINSTON        MOSUNNY   84  66  54 N13       30.00F
NEW BERN       MOSUNNY   86  70  58 N12       29.98F
RICHLANDS      MOSUNNY   84  66  54 N10       29.98F
ROANOKE RAPIDS NOT AVBL
ROCKY MOUNT    SUNNY     83  57  41 N10       30.02F
WASHINGTON     SUNNY     83  69  62 N12       29.98F
WHITEVILLE     SUNNY     83  64  51 N5        30.00S

$$

AMZ130-135-150-152-154-156-158-170-250-252-270-ANZ085-086-088-633-658-670-271900-
MARINE OBSERVATIONS

STATION/POSITION TIME  TEMP    WIND        PRES    WAVE   SWELL
                       AIR SEA DIR/SP/G            HT/PER HT/PER
                 (UTC) (F)     (DEG/KT/KT) (MB)    (FT/S) (FT/S)
CHESAPEAKE LIGHT 1700   73      30/ 14/ 15 1017.0
BUOY 44014       1700   77 78   30/ 16/ 19 1014.7    7/15   7/15
DUCK             1800   74 76  360/ 19/ 21 1014.4
2E DUCK          1800                        N/A     5/12   2/12
OREGON INLET     1800   79 77  360/ 12/ 19 1014.5
BUOY 44095       1800      76                N/A     8/14   5/14
20E OREGON INLET NOT AVBL
HATTERAS CG      1800   78 78   20/ 20/ 25 1014.2
DIAMOND BUOY     1700   78     360/ 23/ 29 1012.3   10/10   7/10
CAPE LOOKOUT     1700   82      10/ 15/ 20 1014.2
BEAUFORT LAB     1800   81 78   10/ 16/ 21 1013.7
30 SE NEW RIVER  1700   79 80  360/ 17/ 21 1014.2
5 SE WRIGHTSVILL 1800   78 81   30/ 10/ 12   N/A
BUOY 41002       1746   81 81  340/ 23/ 29 1008.5   12/11   8/11
BUOY 41004       1800   79 82  360/ 14/ 17 1014.9    6/ 9   5/ 9

$$



USA.gov is the U.S. government's official web portal to all federal, state and local government web resources and services.